ENGTEST SLCB-SLCB

Flight info

Callsign ENGTEST
Flight time 1h 56m
Altitude 29000
Route MUNET2 MUNET ILPAN SALBI PORKI
Aircraft RJ70/M-SDFGIRWY/LB1

Departure

Time 2026-05-05 22:30
Airport Jorge Wilsterman International Airport (SLCB)

Arrival

Time 2026-05-06 00:27
Airport Jorge Wilsterman International Airport (SLCB)
Time Latitude Longitude Altitude Speed Heading
2026-05-05 22:13 -17.41555 -66.17851 8362 ft 0 kts 37°
2026-05-05 22:18 -17.41558 -66.17853 8362 ft 1 kts 37°
2026-05-05 22:19 -17.41563 -66.17857 8362 ft 1 kts 37°
2026-05-05 22:19 -17.41573 -66.17865 8362 ft 2 kts 39°
2026-05-05 22:19 -17.41583 -66.17875 8362 ft 2 kts 44°
2026-05-05 22:19 -17.41593 -66.17885 8362 ft 2 kts 45°
2026-05-05 22:20 -17.41604 -66.17893 8361 ft 2 kts 17°
2026-05-05 22:20 -17.41618 -66.17893 8361 ft 2 kts 340°
2026-05-05 22:20 -17.41623 -66.17890 8361 ft 0 kts 313°
2026-05-05 22:25 -17.41607 -66.17908 8361 ft 6 kts 313°
2026-05-05 22:25 -17.41581 -66.17936 8361 ft 5 kts 313°
2026-05-05 22:26 -17.41546 -66.17976 8361 ft 12 kts 310°
2026-05-05 22:26 -17.41483 -66.18062 8361 ft 8 kts 276°
2026-05-05 22:26 -17.41517 -66.18113 8361 ft 10 kts 224°
2026-05-05 22:26 -17.41595 -66.18192 8361 ft 19 kts 224°
2026-05-05 22:27 -17.41591 -66.18312 8363 ft 24 kts 315°
2026-05-05 22:27 -17.41446 -66.18482 8364 ft 39 kts 312°
2026-05-05 22:27 -17.41246 -66.18711 8364 ft 42 kts 312°
2026-05-05 22:27 -17.41056 -66.18932 8363 ft 42 kts 311°
2026-05-05 22:28 -17.40941 -66.19048 8363 ft 18 kts 341°
2026-05-05 22:28 -17.40926 -66.19056 8363 ft 4 kts 326°
2026-05-05 22:29 -17.40932 -66.19065 8363 ft 3 kts 153°
2026-05-05 22:29 -17.40964 -66.19039 8363 ft 11 kts 134°
2026-05-05 22:29 -17.41017 -66.18981 8363 ft 32 kts 136°
2026-05-05 22:29 -17.41023 -66.18975 8363 ft 35 kts 136°
2026-05-05 22:30 -17.41373 -66.18570 8365 ft 111 kts 132°
2026-05-05 22:30 -17.42027 -66.17822 8557 ft 152 kts 132°
2026-05-05 22:30 -17.42696 -66.16978 9288 ft 156 kts 124°
2026-05-05 22:30 -17.43404 -66.15997 9776 ft 182 kts 127°
2026-05-05 22:31 -17.44271 -66.14891 10143 ft 211 kts 128°
2026-05-05 22:31 -17.45268 -66.13665 10758 ft 232 kts 130°
2026-05-05 22:31 -17.46354 -66.12335 11450 ft 244 kts 132°
2026-05-05 22:31 -17.47475 -66.11033 12258 ft 234 kts 132°
2026-05-05 22:32 -17.48583 -66.09782 13272 ft 242 kts 132°
2026-05-05 22:32 -17.49761 -66.08440 14016 ft 260 kts 132°
2026-05-05 22:32 -17.51032 -66.06979 14639 ft 279 kts 132°
2026-05-05 22:32 -17.52385 -66.05425 15297 ft 296 kts 133°
2026-05-05 22:33 -17.53817 -66.03792 15934 ft 311 kts 133°
2026-05-05 22:33 -17.55311 -66.02086 16531 ft 322 kts 133°
2026-05-05 22:33 -17.56836 -66.00337 17245 ft 327 kts 133°
2026-05-05 22:33 -17.58364 -65.98583 17952 ft 331 kts 133°
2026-05-05 22:34 -17.59936 -65.96785 18620 ft 335 kts 134°
2026-05-05 22:34 -17.61519 -65.94987 19170 ft 338 kts 134°
2026-05-05 22:34 -17.63148 -65.93129 19448 ft 351 kts 133°
2026-05-05 22:34 -17.64808 -65.91223 19856 ft 356 kts 133°
2026-05-05 22:35 -17.66455 -65.89255 20308 ft 360 kts 126°
2026-05-05 22:35 -17.67443 -65.86896 20763 ft 364 kts 101°
2026-05-05 22:35 -17.67705 -65.84238 21249 ft 366 kts 92°
2026-05-05 22:35 -17.67744 -65.81553 21739 ft 369 kts 89°
2026-05-05 22:36 -17.67680 -65.78859 22230 ft 371 kts 88°
2026-05-05 22:36 -17.67577 -65.76140 22702 ft 374 kts 87°
2026-05-05 22:36 -17.67473 -65.73406 23171 ft 376 kts 88°
2026-05-05 22:36 -17.67379 -65.70633 23640 ft 379 kts 88°
2026-05-05 22:37 -17.67306 -65.67902 24033 ft 382 kts 88°
2026-05-05 22:37 -17.67253 -65.65101 24367 ft 385 kts 88°
2026-05-05 22:37 -17.67206 -65.62286 24723 ft 388 kts 88°
2026-05-05 22:37 -17.67163 -65.59446 25128 ft 389 kts 88°
2026-05-05 22:38 -17.67124 -65.56600 25543 ft 390 kts 88°
2026-05-05 22:38 -17.67085 -65.53755 25965 ft 390 kts 88°
2026-05-05 22:38 -17.67036 -65.50910 26401 ft 390 kts 88°
2026-05-05 22:38 -17.66986 -65.48048 26834 ft 390 kts 88°
2026-05-05 22:39 -17.66938 -65.45229 27269 ft 390 kts 88°
2026-05-05 22:39 -17.66891 -65.42386 27688 ft 390 kts 88°
2026-05-05 22:39 -17.66843 -65.39539 28110 ft 390 kts 88°
2026-05-05 22:39 -17.66796 -65.36728 28506 ft 390 kts 88°
2026-05-05 22:40 -17.66733 -65.33853 28934 ft 388 kts 88°
2026-05-05 22:40 -17.66664 -65.31067 29104 ft 389 kts 87°
2026-05-05 22:40 -17.66531 -65.28198 29167 ft 398 kts 86°
2026-05-05 22:40 -17.66361 -65.25259 29188 ft 409 kts 85°
2026-05-05 22:41 -17.66174 -65.22235 29192 ft 417 kts 85°
2026-05-05 22:41 -17.65846 -65.16156 29180 ft 420 kts 86°
2026-05-05 22:42 -17.66540 -65.10174 29161 ft 415 kts 117°
2026-05-05 22:42 -17.68239 -65.07749 29178 ft 414 kts 138°
2026-05-05 22:42 -17.70637 -65.06095 29180 ft 413 kts 159°
2026-05-05 22:42 -17.73397 -65.05420 29182 ft 410 kts 179°
2026-05-05 22:43 -17.76201 -65.05795 29178 ft 405 kts 200°
2026-05-05 22:43 -17.78667 -65.07173 29171 ft 400 kts 221°
2026-05-05 22:43 -17.80474 -65.09365 29149 ft 396 kts 242°
2026-05-05 22:43 -17.81378 -65.12033 29164 ft 394 kts 262°
2026-05-05 22:44 -17.81689 -65.14894 29158 ft 394 kts 266°
2026-05-05 22:44 -17.82056 -65.20638 29147 ft 394 kts 268°
2026-05-05 22:45 -17.82246 -65.26369 29138 ft 394 kts 269°
2026-05-05 22:45 -17.82384 -65.32096 29131 ft 394 kts 269°
2026-05-05 22:46 -17.82509 -65.37833 29134 ft 393 kts 269°
2026-05-05 22:46 -17.82418 -65.43584 29131 ft 393 kts 277°
2026-05-05 22:47 -17.81572 -65.49317 29148 ft 408 kts 281°
2026-05-05 22:47 -17.80704 -65.52163 29153 ft 416 kts 298°
2026-05-05 22:47 -17.78877 -65.54536 29177 ft 425 kts 319°
2026-05-05 22:47 -17.76322 -65.56115 29200 ft 435 kts 339°
2026-05-05 22:48 -17.73313 -65.56713 29204 ft 443 kts 358°
2026-05-05 22:48 -17.70249 -65.56227 29218 ft 449 kts 17°
2026-05-05 22:48 -17.67467 -65.54701 29229 ft 453 kts 36°
2026-05-05 22:48 -17.65296 -65.52318 29223 ft 459 kts 55°
2026-05-05 22:49 -17.63917 -65.49264 29227 ft 468 kts 73°
2026-05-05 22:49 -17.63501 -65.45903 29228 ft 471 kts 91°
2026-05-05 22:49 -17.64020 -65.42558 29222 ft 459 kts 105°
2026-05-05 22:50 -17.65135 -65.36043 29200 ft 458 kts 92°
2026-05-05 22:50 -17.64913 -65.32732 29200 ft 458 kts 76°
2026-05-05 22:50 -17.64084 -65.29485 29200 ft 459 kts 75°
2026-05-05 22:51 -17.62637 -65.22932 29189 ft 462 kts 76°
2026-05-05 22:51 -17.61123 -65.16419 29171 ft 462 kts 75°
2026-05-05 22:52 -17.59497 -65.09895 29152 ft 462 kts 74°
2026-05-05 22:52 -17.57763 -65.03391 29158 ft 463 kts 73°
2026-05-05 22:53 -17.55924 -64.96960 29142 ft 463 kts 72°
2026-05-05 22:53 -17.53392 -64.90775 29144 ft 461 kts 57°
2026-05-05 22:54 -17.50029 -64.85018 29135 ft 462 kts 59°
2026-05-05 22:54 -17.46949 -64.79098 29104 ft 463 kts 61°
2026-05-05 22:55 -17.43998 -64.73154 29099 ft 463 kts 62°
2026-05-05 22:55 -17.41035 -64.67155 29085 ft 463 kts 61°
2026-05-05 22:56 -17.38016 -64.61204 29063 ft 463 kts 61°
2026-05-05 22:56 -17.34595 -64.55544 29051 ft 460 kts 41°
2026-05-05 22:57 -17.29434 -64.51628 29038 ft 459 kts 34°
2026-05-05 22:57 -17.27189 -64.49322 29029 ft 462 kts 54°
2026-05-05 22:57 -17.25758 -64.46265 29025 ft 465 kts 73°
2026-05-05 22:57 -17.25359 -64.44053 29027 ft 466 kts 85°
2026-05-05 22:58 -17.25885 -64.39626 29024 ft 466 kts 110°
2026-05-05 22:58 -17.26785 -64.37587 29030 ft 466 kts 122°
2026-05-05 22:58 -17.28840 -64.34986 29030 ft 464 kts 140°
2026-05-05 22:58 -17.32532 -64.32793 29040 ft 459 kts 165°
2026-05-05 22:59 -17.35669 -64.32300 29046 ft 455 kts 183°
2026-05-05 22:59 -17.37748 -64.32550 29051 ft 452 kts 194°
2026-05-05 22:59 -17.40771 -64.33449 29059 ft 451 kts 200°
2026-05-05 23:00 -17.49515 -64.37070 29063 ft 447 kts 210°
2026-05-05 23:00 -17.51944 -64.39061 29072 ft 443 kts 230°
2026-05-05 23:00 -17.53541 -64.41739 29094 ft 441 kts 249°
2026-05-05 23:01 -17.54209 -64.44862 29100 ft 440 kts 268°
2026-05-05 23:01 -17.53850 -64.48032 29118 ft 439 kts 287°
2026-05-05 23:01 -17.52500 -64.50909 29120 ft 440 kts 306°
2026-05-05 23:01 -17.50318 -64.53157 29121 ft 444 kts 324°
2026-05-05 23:02 -17.47531 -64.54545 29121 ft 448 kts 343°
2026-05-05 23:02 -17.44521 -64.55254 29111 ft 447 kts 341°
2026-05-05 23:02 -17.41779 -64.56742 29092 ft 443 kts 320°
2026-05-05 23:02 -17.39746 -64.59146 29091 ft 441 kts 300°
2026-05-05 23:03 -17.38615 -64.62114 29082 ft 440 kts 281°
2026-05-05 23:03 -17.38497 -64.65305 29095 ft 440 kts 262°
2026-05-05 23:03 -17.39344 -64.68384 29105 ft 441 kts 249°
2026-05-05 23:03 -17.40518 -64.71359 29102 ft 442 kts 248°
2026-05-05 23:04 -17.43306 -64.77027 29110 ft 445 kts 229°
2026-05-05 23:04 -17.45734 -64.79044 29124 ft 449 kts 210°
2026-05-05 23:04 -17.48692 -64.80107 29133 ft 454 kts 191°
2026-05-05 23:05 -17.51849 -64.80117 29146 ft 458 kts 173°
2026-05-05 23:05 -17.54898 -64.79121 29141 ft 461 kts 154°
2026-05-05 23:05 -17.57488 -64.77201 29144 ft 464 kts 136°
2026-05-05 23:05 -17.59432 -64.74487 29139 ft 466 kts 118°
2026-05-05 23:06 -17.60493 -64.71265 29131 ft 467 kts 99°
2026-05-05 23:06 -17.60564 -64.67884 29139 ft 467 kts 81°
2026-05-05 23:06 -17.59663 -64.64668 29134 ft 465 kts 63°
2026-05-05 23:06 -17.57877 -64.61865 29128 ft 462 kts 45°
2026-05-05 23:07 -17.55386 -64.59808 29124 ft 458 kts 27°
2026-05-05 23:07 -17.52409 -64.58673 29122 ft 454 kts
2026-05-05 23:07 -17.49260 -64.58553 29105 ft 449 kts 352°
2026-05-05 23:07 -17.46300 -64.59400 29101 ft 446 kts 333°
2026-05-05 23:08 -17.43754 -64.61211 29102 ft 443 kts 315°
2026-05-05 23:08 -17.41928 -64.63784 29092 ft 441 kts 296°
2026-05-05 23:08 -17.41018 -64.66836 29103 ft 440 kts 277°
2026-05-05 23:08 -17.41127 -64.70031 29120 ft 441 kts 258°
2026-05-05 23:09 -17.42245 -64.73032 29120 ft 444 kts 239°
2026-05-05 23:09 -17.44246 -64.75491 29116 ft 448 kts 221°
2026-05-05 23:09 -17.46933 -64.77156 29137 ft 452 kts 202°
2026-05-05 23:09 -17.50005 -64.77837 29143 ft 456 kts 184°
2026-05-05 23:10 -17.53154 -64.77464 29140 ft 460 kts 165°
2026-05-05 23:10 -17.56034 -64.76082 29144 ft 463 kts 147°
2026-05-05 23:10 -17.58407 -64.73798 29142 ft 465 kts 129°
2026-05-05 23:10 -17.60077 -64.70888 29140 ft 467 kts 113°
2026-05-05 23:11 -17.60937 -64.67651 29134 ft 467 kts 97°
2026-05-05 23:11 -17.60937 -64.64238 29127 ft 466 kts 81°
2026-05-05 23:11 -17.60072 -64.60995 29121 ft 464 kts 65°
2026-05-05 23:11 -17.58399 -64.58111 29123 ft 462 kts 49°
2026-05-05 23:12 -17.56075 -64.55842 29117 ft 459 kts 33°
2026-05-05 23:12 -17.53255 -64.54327 29102 ft 455 kts 17°
2026-05-05 23:12 -17.50156 -64.53729 29098 ft 451 kts 359°
2026-05-05 23:12 -17.47066 -64.54198 29099 ft 447 kts 340°
2026-05-05 23:13 -17.44319 -64.55672 29092 ft 444 kts 322°
2026-05-05 23:13 -17.42190 -64.57995 29093 ft 442 kts 303°
2026-05-05 23:13 -17.40922 -64.60875 29089 ft 441 kts 284°
2026-05-05 23:13 -17.40624 -64.64055 29095 ft 441 kts 266°
2026-05-05 23:14 -17.41305 -64.67200 28919 ft 445 kts 251°
2026-05-05 23:14 -17.42423 -64.70237 28752 ft 443 kts 249°
2026-05-05 23:14 -17.43552 -64.73206 28578 ft 442 kts 249°
2026-05-05 23:14 -17.44269 -64.75040 28463 ft 442 kts 248°
2026-05-06 00:10 -17.44539 -64.75724 28377 ft 444 kts 248°
2026-05-06 00:10 -17.45723 -64.78696 28196 ft 448 kts 249°
2026-05-06 00:10 -17.46913 -64.81711 28020 ft 444 kts 249°
2026-05-06 00:10 -17.48096 -64.84716 27848 ft 445 kts 249°
2026-05-06 00:11 -17.49271 -64.87716 27672 ft 443 kts 249°
2026-05-06 00:11 -17.50400 -64.90671 27524 ft 441 kts 249°
2026-05-06 00:11 -17.51595 -64.93630 27388 ft 441 kts 248°
2026-05-06 00:11 -17.52656 -64.96619 27233 ft 440 kts 254°
2026-05-06 00:12 -17.53425 -64.99739 27103 ft 438 kts 259°
2026-05-06 00:12 -17.53989 -65.02843 26967 ft 437 kts 261°
2026-05-06 00:12 -17.54475 -65.05996 26835 ft 436 kts 262°
2026-05-06 00:12 -17.54937 -65.09100 26701 ft 435 kts 262°
2026-05-06 00:13 -17.55411 -65.12224 26554 ft 434 kts 262°
2026-05-06 00:13 -17.55911 -65.15352 26417 ft 434 kts 261°
2026-05-06 00:13 -17.56424 -65.18476 26284 ft 433 kts 261°
2026-05-06 00:13 -17.56941 -65.21600 26152 ft 433 kts 261°
2026-05-06 00:14 -17.57456 -65.24704 26007 ft 432 kts 261°
2026-05-06 00:14 -17.57965 -65.27776 25881 ft 431 kts 261°
2026-05-06 00:14 -17.58477 -65.30874 25747 ft 431 kts 261°
2026-05-06 00:14 -17.58989 -65.33979 25614 ft 430 kts 261°
2026-05-06 00:15 -17.59497 -65.37069 25483 ft 429 kts 261°
2026-05-06 00:15 -17.60003 -65.40156 25354 ft 429 kts 261°
2026-05-06 00:15 -17.60501 -65.43202 25223 ft 428 kts 261°
2026-05-06 00:15 -17.61004 -65.46285 25089 ft 428 kts 261°
2026-05-06 00:16 -17.61502 -65.49357 24905 ft 428 kts 261°
2026-05-06 00:16 -17.62002 -65.52445 24690 ft 426 kts 261°
2026-05-06 00:16 -17.62497 -65.55511 24482 ft 425 kts 261°
2026-05-06 00:16 -17.62984 -65.58539 24295 ft 425 kts 261°
2026-05-06 00:17 -17.63472 -65.61587 24091 ft 424 kts 262°
2026-05-06 00:17 -17.63966 -65.64653 23888 ft 423 kts 261°
2026-05-06 00:17 -17.64475 -65.67655 23670 ft 422 kts 261°
2026-05-06 00:17 -17.64970 -65.70681 23128 ft 400 kts 261°
2026-05-06 00:18 -17.65397 -65.73333 22544 ft 354 kts 261°
2026-05-06 00:18 -17.65805 -65.75849 21922 ft 353 kts 261°
2026-05-06 00:18 -17.66222 -65.78388 21329 ft 352 kts 261°
2026-05-06 00:18 -17.66627 -65.80915 20718 ft 350 kts 260°
2026-05-06 00:19 -17.67028 -65.83426 20076 ft 347 kts 260°
2026-05-06 00:19 -17.67370 -65.85708 19511 ft 343 kts 263°
2026-05-06 00:19 -17.67142 -65.88041 18932 ft 341 kts 288°
2026-05-06 00:19 -17.65991 -65.90159 18315 ft 331 kts 307°
2026-05-06 00:20 -17.64612 -65.91894 17540 ft 292 kts 311°
2026-05-06 00:20 -17.63236 -65.93433 16771 ft 281 kts 313°
2026-05-06 00:20 -17.61889 -65.94888 15976 ft 275 kts 314°
2026-05-06 00:20 -17.60579 -65.96309 15213 ft 273 kts 313°
2026-05-06 00:21 -17.59312 -65.97717 14504 ft 252 kts 312°
2026-05-06 00:21 -17.58191 -65.98994 13774 ft 224 kts 311°
2026-05-06 00:21 -17.57157 -66.00192 12964 ft 220 kts 311°
2026-05-06 00:21 -17.56136 -66.01390 12154 ft 218 kts 311°
2026-05-06 00:22 -17.55139 -66.02573 11460 ft 212 kts 311°
2026-05-06 00:22 -17.54177 -66.03704 11140 ft 210 kts 311°
2026-05-06 00:22 -17.53250 -66.04777 10878 ft 207 kts 311°
2026-05-06 00:22 -17.52715 -66.05390 10686 ft 206 kts 311°
2026-05-06 00:23 -17.52613 -66.05506 10651 ft 206 kts 311°
2026-05-06 00:23 -17.51657 -66.06610 10319 ft 200 kts 310°
2026-05-06 00:23 -17.50801 -66.07623 10258 ft 174 kts 310°
2026-05-06 00:23 -17.50055 -66.08504 10166 ft 153 kts 311°
2026-05-06 00:24 -17.49372 -66.09306 10079 ft 138 kts 311°
2026-05-06 00:24 -17.48760 -66.10025 9972 ft 130 kts 313°
2026-05-06 00:24 -17.48153 -66.10731 9898 ft 130 kts 313°
2026-05-06 00:24 -17.47548 -66.11430 9826 ft 130 kts 313°
2026-05-06 00:25 -17.46950 -66.12121 9770 ft 127 kts 313°
2026-05-06 00:25 -17.46349 -66.12815 9709 ft 130 kts 313°
2026-05-06 00:25 -17.45738 -66.13518 9608 ft 130 kts 313°
2026-05-06 00:25 -17.45136 -66.14222 9429 ft 133 kts 312°
2026-05-06 00:26 -17.44485 -66.14967 9079 ft 141 kts 312°
2026-05-06 00:26 -17.43803 -66.15726 8764 ft 144 kts 311°
2026-05-06 00:26 -17.43138 -66.16497 8482 ft 138 kts 308°
2026-05-06 00:26 -17.42551 -66.17202 8362 ft 117 kts 310°
2026-05-06 00:27 -17.42148 -66.17667 8362 ft 52 kts 312°
2026-05-06 00:27 -17.41918 -66.17931 8361 ft 46 kts 312°
2026-05-06 00:27 -17.41819 -66.17991 8361 ft 7 kts 25°
2026-05-06 00:27 -17.41772 -66.17970 8360 ft 7 kts 22°
2026-05-06 00:28 -17.41726 -66.17952 8360 ft 7 kts 19°
2026-05-06 00:28 -17.41680 -66.17936 8361 ft 8 kts 17°
2026-05-06 00:28 -17.41627 -66.17906 8361 ft 9 kts 23°
2026-05-06 00:28 -17.41573 -66.17868 8361 ft 10 kts 40°
2026-05-06 00:29 -17.41551 -66.17849 8362 ft 0 kts 41°